Погода в Перемётном

Казахстан     51°11′48″N   50°51′13″E
темп.,
°C
ветер,
м/с
пор.,
м/с
влажн.,
%
обл.,
%
осадки,
мм/ч
давл.,
гПа
погр.,
м
1 декабря, ср
ср123:00+5ю61398100 0.3 1002419
02:00+6ю51098100 0.0 1000331
05:00+5ююв3699100 0.0 998179
08:00+5ююв4899100 0.1 996260
11:00+4юв61197100 2.0 993258
14:00+4ююв61291100 0.6 992381
17:00+5ю61496100 1.1 991555
20:00+4зсз71091100 0.1 992458
2 декабря, чт
чт223:00+1зсз91385100 0.1 997688
02:000з610795 0.0 1001484
05:00−2з410825 0.0 1003312
08:00−3зюз49805 0.0 1005259
11:00−1зюз59755 0.0 1008369
14:00+2зюз710635 0.0 1009822
17:00+1зюз71071100 0.0 1011560
20:000зюз61081100 0.1 1013962
3 декабря, пт
пт323:00−1зюз611775 0.1 1014409
02:00−2юз61286100 0.0 1016428
05:00−2юз612815 0.0 1016402
08:00−2юз6138187 0.0 1016369
11:000ююз71580100 0.0 1017483
14:00+3юз71576100 0.0 1017576
17:00+3юз71385100 0.0 1019463
20:00+3юз61393100 0.0 1020406
4 декабря, сб
сб423:00+3ююз61491100 0.0 1021392
02:00+3ююз61583100 0.0 1022423
05:00+2ююз61579100 0.0 1022356
08:00+2ю7168999 0.0 1022411
11:00+3ю817845 0.0 1021607
14:00+6ю10186530 0.0 1019909
17:00+5ю10177099 0.0 1018776
20:00+6ю101777100 0.0 1017837
5 декабря, вс
вс523:00+5ю91772100 0.0 1016678
02:00+4ююз91776100 0.2 1016651
05:00+3ююз81583100 0.9 1015588
08:00+3ююз61094100 3.9 1015686
11:00+3сз3398100 6.1 1017414
14:00+2ссз3487100 0.0 1018440
17:00+2ссз2366100 0.0 101969
20:00−1с347033 0.0 102163